Location: Newark
(20.1200°S, 168.9600°E)
Time: 02:54:15
(UTC+00:00)

Hubble Space Telescope - Pass Details

Date: 24 November 2019
Orbit: 536 x 540 km, 28.5° (Epoch: 05 December)

Event Time Altitude Azimuth Distance (km) Brightness Sun altitude
Exits shadow 16:18:35 39° 233° (SW) 813 1.5 -21.0°
Maximum altitude 16:19:27 46° 196° (SSW) 729 1.5 -20.8°
Drops below altitude 10° 16:23:29 10° 122° (ESE) 1,800 4.7 -20.0°
Sets 16:25:49 0° 116° (ESE) 2,693 6.0 -19.6°
